JP7FSO Weather Reports


time (UTC)temp
C
wind
direction
speed
KPH
gust
KPH
rain 1hr
cm
rain 24hr
cm
rain mn
cm
humidity
%
barometer
mb
20260903163016 20 295 0.0 0.0 0.00 0.00 0.00 97 1001.5
20260903160020 20 80 0.0 0.0 0.00 0.00 0.00 97 1001.3
20260903154600 20 80 0.0 0.0 0.00 0.00 0.00 97 1001.3
20260903153020 20 276 0.0 0.0 0.00 0.00 0.00 97 1001.5
20260903151529 21 274 0.0 0.0 0.00 0.00 0.00 96 1001.5
20260903150022 21 168 0.0 0.0 0.00 0.00 1.75 96 1001.4
20260903144504 21 261 0.0 0.0 0.00 0.00 1.75 96 1001.0
20260903143014 21 290 0.0 0.0 0.00 0.00 1.75 96 1001.0
20260903140059 21 103 0.0 0.0 0.00 0.00 1.75 96 1001.1
20260903134517 21 103 0.0 0.0 0.00 0.00 1.75 96 1001.4
20260903131510 21 103 0.0 0.0 0.00 0.00 1.75 96 1001.3
20260903130029 21 103 0.0 0.0 0.00 0.00 1.75 96 1001.3
20260903124603 21 288 0.0 0.0 0.00 0.00 1.75 96 1001.0
20260903121606 21 307 0.0 0.0 0.00 0.00 1.75 96 1001.2
20260903120017 21 307 0.0 0.0 0.00 0.00 1.75 96 1001.3
20260903114559 21 95 0.0 0.0 0.00 0.00 1.75 96 1001.4
20260903113018 21 291 0.0 0.0 0.00 0.00 1.75 96 1001.5
20260903111516 21 291 0.0 0.0 0.00 0.00 1.75 96 1001.4
20260903103016 21 265 0.0 0.0 0.00 0.00 1.75 96 1001.5
20260903101504 21 265 0.0 0.0 0.00 0.00 1.75 96 1001.5
20260903100017 22 265 0.0 0.0 0.00 0.00 1.75 96 1001.5
20260903094609 22 265 0.0 0.0 0.00 0.00 1.75 96 1001.5
20260903093032 22 262 0.0 0.0 0.00 0.00 1.75 96 1001.5
20260903091517 22 232 0.0 0.0 0.00 0.00 1.75 96 1001.1
20260903090104 22 108 0.0 0.0 0.00 0.00 1.75 96 1001.2
20260903084515 22 107 0.0 0.0 0.00 0.00 1.75 96 1002.0
20260903083005 22 106 0.0 0.0 0.00 0.00 1.75 96 1002.1
20260903081523 22 264 0.0 0.0 0.00 0.00 1.75 96 1002.5
20260903074513 22 278 0.0 0.0 0.00 0.00 1.75 96 1002.0
20260903073014 22 101 0.0 0.0 0.00 0.00 1.75 96 1001.3
20260903071507 22 113 0.0 0.0 0.00 0.00 1.75 96 1002.0
20260903070022 22 90 0.0 0.0 0.00 0.00 1.75 96 1002.1
20260903064552 22 288 0.0 0.0 0.00 0.00 1.75 96 1002.5
20260903063031 22 288 0.0 0.0 0.00 0.00 1.75 96 1003.0
20260903061533 22 288 0.0 0.0 0.00 0.00 1.75 96 1003.4
20260903060119 22 288 0.0 0.0 0.00 0.00 1.75 96 1003.5
20260903054556 22 288 0.0 0.0 0.00 0.00 1.75 96 1003.2
20260903053006 22 288 0.0 0.0 0.00 0.00 1.75 96 1002.9
20260903051534 22 288 0.0 0.0 0.00 0.00 1.75 96 1002.6
20260903050033 22 288 0.0 0.0 0.00 0.00 1.75 96 1002.6
20260903043026 22 288 0.0 0.0 0.00 0.00 1.75 96 1002.7
20260903041524 22 288 0.0 0.0 0.00 0.00 1.75 96 1003.1
20260903040010 22 288 0.0 0.0 0.00 0.00 1.75 96 1003.0
20260903034520 22 288 0.0 0.0 0.00 0.00 1.75 96 1003.0
20260903031526 22 288 0.0 0.0 0.00 0.00 1.73 96 1003.6
20260903030021 21 288 0.0 0.0 0.00 0.00 1.73 96 1003.5
20260903024524 22 283 0.0 0.0 0.00 0.00 1.73 96 1003.6
20260903023024 21 300 0.0 0.0 0.00 0.00 1.73 96 1003.3
20260903021515 21 97 0.0 0.0 0.00 0.00 1.73 95 1002.6
20260903013007 21 96 0.0 0.0 0.00 0.00 1.60 94 1004.1
20260903010041 22 139 0.0 0.0 0.00 0.00 1.42 93 1004.1
20260903004516 22 139 0.0 0.0 0.00 0.00 1.32 93 1004.1
20260903003024 23 139 3.2 0.0 0.00 0.00 0.86 93 1004.9
20260903000109 23 110 0.0 0.0 0.00 0.00 0.20 94 1002.5
20260902234501 23 110 0.0 0.0 0.00 0.00 0.13 94 1002.7
20260902233024 23 110 0.0 0.0 0.00 0.00 0.10 94 1002.6
20260902231506 23 110 0.0 0.0 0.00 0.00 0.05 94 1002.6
20260902230003 23 110 0.0 0.0 0.00 0.00 0.05 94 1002.5
20260902224524 23 282 0.0 0.0 0.00 0.00 0.03 94 1002.4
20260902221524 23 292 0.0 0.0 0.00 0.00 0.03 94 1002.1
20260902220020 22 292 0.0 0.0 0.00 0.00 0.03 94 1002.5
20260902213054 22 292 0.0 0.0 0.00 0.00 0.03 94 1002.7
20260902211534 22 292 0.0 0.0 0.00 0.00 0.03 94 1002.8
20260902210057 22 292 0.0 0.0 0.00 0.00 0.03 93 1003.0
20260902204513 22 303 0.0 0.0 0.00 0.00 0.03 93 1003.0
20260902203015 22 281 0.0 0.0 0.00 0.00 0.03 93 1003.0
20260902201512 22 281 0.0 0.0 0.00 0.00 0.03 93 1003.0
20260902200034 22 281 0.0 0.0 0.00 0.00 0.03 93 1003.0
20260902194521 22 281 0.0 0.0 0.00 0.00 0.03 92 1003.1
20260902193016 22 281 0.0 0.0 0.00 0.00 0.03 92 1003.0
20260902191602 22 281 0.0 0.0 0.00 0.00 0.03 92 1003.0
20260902190002 22 281 0.0 0.0 0.00 0.00 0.03 92 1003.2
20260902184523 22 281 0.0 0.0 0.00 0.00 0.03 92 1003.0
20260902183015 23 281 0.0 0.0 0.00 0.00 0.03 92 1003.5
20260902181510 23 274 0.0 0.0 0.00 0.00 0.03 92 1003.5
20260902180009 23 143 0.0 0.0 0.00 0.00 0.03 92 1003.4
20260902174529 23 143 0.0 0.0 0.00 0.00 0.00 91 1003.6
20260902173106 23 219 0.0 0.0 0.00 0.00 0.00 91 1003.8
20260902171501 23 219 0.0 0.0 0.00 0.00 0.00 91 1003.8
20260902170029 23 219 0.0 0.0 0.00 0.00 0.00 90 1003.8